This is the latest recevied weather packets stored in our database for station/object W3AJR. If no packets are shown the sender has not sent any weather packets the latest 10 day(s).
| Time | Temp. | Humidity | Pressure | Rain* | Wind** | Luminosity | Snow |
|---|---|---|---|---|---|---|---|
| 1777500031 | 15.56° C | 99% | 1006.7 hPa | 0 mm | - | 35 W/m² | - |
| 1777499728 | 15.56° C | 99% | 1006.7 hPa | 0 mm | - | 41 W/m² | - |
| 1777499425 | 15.56° C | 99% | 1007 hPa | 0 mm | - | 42 W/m² | - |
| 1777499123 | 15.56° C | 99% | 1007.2 hPa | 0 mm | - | 44 W/m² | - |
| 1777498820 | 15.56° C | 99% | 1007.1 hPa | 0 mm | - | 69 W/m² | - |
| 1777498516 | 15.56° C | 99% | 1007.3 hPa | 0 mm | - | 62 W/m² | - |
| 1777498212 | 15.56° C | 99% | 1007.4 hPa | 0 mm | - | 35 W/m² | - |
| 1777497911 | 15.56° C | 99% | 1007.4 hPa | 0 mm | - | 44 W/m² | - |
| 1777497606 | 15.56° C | 99% | 1007.6 hPa | 1.27 mm | - | 44 W/m² | - |
| 1777497303 | 15.56° C | 99% | 1007.8 hPa | 3.05 mm | - | 37 W/m² | - |
| 1777496999 | 15.56° C | 99% | 1007.9 hPa | 3.05 mm | - | 39 W/m² | - |
| 1777496696 | 15.56° C | 99% | 1007.9 hPa | 4.32 mm | - | 56 W/m² | - |
| 1777496392 | 15.56° C | 99% | 1008 hPa | 1.27 mm | - | 27 W/m² | - |
| 1777496089 | 15.56° C | 99% | 1008 hPa | 0 mm | - | 26 W/m² | - |
| 1777495785 | 15.56° C | 99% | 1007.8 hPa | 1.78 mm | - | 29 W/m² | - |
| 1777495481 | 15.56° C | 99% | 1007.7 hPa | 1.78 mm | - | 44 W/m² | - |
| 1777495177 | 15.56° C | 99% | 1007.9 hPa | 1.27 mm | - | 46 W/m² | - |
| 1777494875 | 15.56° C | 99% | 1007.8 hPa | 1.27 mm | - | 28 W/m² | - |
| 1777494572 | 15.56° C | 99% | 1008.1 hPa | 0 mm | - | 68 W/m² | - |
| 1777494269 | 15° C | 99% | 1008.1 hPa | 0 mm | - | 42 W/m² | - |
| 1777493966 | 15.56° C | 99% | 1008.2 hPa | 0 mm | - | 29 W/m² | - |
| 1777493664 | 15.56° C | 99% | 1008.1 hPa | 0 mm | - | 27 W/m² | - |
| 1777493361 | 15.56° C | 99% | 1008.2 hPa | 0 mm | - | 36 W/m² | - |
| 1777493057 | 15.56° C | 98% | 1008.2 hPa | 0 mm | - | 45 W/m² | - |
| 1777492754 | 15.56° C | 98% | 1008.5 hPa | 0 mm | - | 44 W/m² | - |
* Rain latest hour (hover to see other rain measurements)
** Current wind speed in m/s (hover to see current wind gust speed)